Flight Track Log - Related Links

Times and Time Zones

All times are in EDT time to prevent confusion due to time zone crossing. See the SKQ225 flight status page for this flight to view local times or setup timezone preferences in your user account.

Time Position Orientation Groundspeed Altitude Reporting Facility
EDT Latitude Longitude Course Direction KTS MPH feet Rate Location/Type
02:22AM 40.0747 -83.1119 229° Southwest 127 146 1,900  Level Indianapolis Center
02:23AM 40.0581 -83.1372 229° Southwest 121 139 2,700 917 Climbing Indianapolis Center
02:24AM 40.0497 -83.1486 226° Southwest 122 140 3,000 900 Climbing Indianapolis Center
02:24AM 40.0325 -83.1750 230° Southwest 131 151 3,600 900 Climbing Indianapolis Center
02:25AM 40.0261 -83.1839 227° Southwest 125 144 3,900 984 Climbing Indianapolis Center
02:25AM 40.0089 -83.2131 232° Southwest 132 152 4,600 1,000 Climbing Indianapolis Center
02:26AM 40.0022 -83.2211 223° Southwest 128 147 4,900 1,000 Climbing Indianapolis Center
02:26AM 39.9833 -83.2481 228° Southwest 131 151 5,600 1,000 Climbing Indianapolis Center
02:27AM 39.9767 -83.2581 229° Southwest 133 153 5,900 885 Climbing Indianapolis Center
02:27AM 39.9581 -83.2833 226° Southwest 139 160 6,500 885 Climbing Indianapolis Center
02:28AM 39.9506 -83.2942 228° Southwest 135 155 6,800 984 Climbing Indianapolis Center
02:28AM 39.9300 -83.3233 227° Southwest 148 170 7,500 900 Climbing Indianapolis Center
02:29AM 39.9219 -83.3350 228° Southwest 147 169 7,700 500 Climbing Indianapolis Center
02:29AM 39.9019 -83.3636 228° Southwest 157 181 8,000 300 Climbing Indianapolis Center
02:30AM 39.8900 -83.3792 225° Southwest 162 186 8,000 109 Level Indianapolis Center
02:30AM 39.8672 -83.4108 227° Southwest 202 232 8,100 100 Climbing Indianapolis Center
02:31AM 39.8528 -83.4336 230° Southwest 192 221 8,100  Level Indianapolis Center
02:31AM 39.8319 -83.4636 228° Southwest 192 221 8,100  Level Indianapolis Center
02:32AM 39.8203 -83.4792 226° Southwest 196 226 8,100  Level Indianapolis Center
02:32AM 39.7947 -83.5161 228° Southwest 194 223 8,100  Level Indianapolis Center
02:33AM 39.7825 -83.5331 227° Southwest 196 226 8,100  Level Indianapolis Center
02:33AM 39.7572 -83.5686 227° Southwest 192 221 8,100  Level Indianapolis Center
02:34AM 39.7467 -83.5847 230° Southwest 192 221 8,100  Level Indianapolis Center
02:34AM 39.7219 -83.6211 229° Southwest 194 223 8,100  Level Indianapolis Center
02:35AM 39.7106 -83.6364 226° Southwest 192 221 8,100  Level Indianapolis Center
02:35AM 39.6847 -83.6736 228° Southwest 191 220 8,100  Level Indianapolis Center
02:36AM 39.6736 -83.6883 226° Southwest 193 222 8,100  Level Indianapolis Center
02:36AM 39.6494 -83.7233 228° Southwest 191 220 8,100  Level Indianapolis Center
02:37AM 39.6381 -83.7394 227° Southwest 191 220 8,100  Level Indianapolis Center
02:37AM 39.6119 -83.7756 227° Southwest 191 220 8,100  Level Indianapolis Center
02:38AM 39.6014 -83.7906 228° Southwest 192 221 8,100  Level Indianapolis Center
02:39AM 39.5658 -83.8408 227° Southwest 189 217 8,100  Level Indianapolis Center
02:40AM 39.5297 -83.8917 227° Southwest 189 217 8,100  Level Indianapolis Center
02:41AM 39.4939 -83.9417 227° Southwest 189 217 8,100  Level Indianapolis Center
02:42AM 39.4581 -83.9925 228° Southwest 188 216 8,100 -50 Level Indianapolis Center
02:43AM 39.4225 -84.0422 227° Southwest 187 215 8,000 -50 Descending Indianapolis Center
02:44AM 39.3867 -84.0919 227° Southwest 188 216 8,000  Level Indianapolis Center
02:45AM 39.3514 -84.1422 228° Southwest 188 216 8,000  Level Indianapolis Center
02:46AM 39.3150 -84.1919 227° Southwest 186 214 8,000  Level Indianapolis Center
02:47AM 39.2856 -84.2333 227° Southwest 187 215 8,000  Level Indianapolis Center
02:48AM 39.2494 -84.2839 227° Southwest 189 217 8,000  Level Indianapolis Center
02:49AM 39.2136 -84.3344 228° Southwest 189 217 8,000  Level Indianapolis Center
02:50AM 39.1767 -84.3836 226° Southwest 189 217 8,000  Level Indianapolis Center
02:51AM 39.1406 -84.4342 227° Southwest 189 217 8,000  Level Indianapolis Center
02:52AM 39.1000 -84.4833 223° Southwest 192 221 8,000  Level Cincinnati TRACON
02:53AM 39.0667 -84.5333 229° Southwest 190 219 8,000  Level Cincinnati TRACON
02:54AM 39.0333 -84.5833 229° Southwest 190 219 8,000  Level Cincinnati TRACON
02:55AM 39.0000 -84.6333 229° Southwest 190 219 8,000  Level Cincinnati TRACON
02:56AM 38.9667 -84.6833 229° Southwest 188 216 8,000  Level Cincinnati TRACON
02:57AM 38.9167 -84.7333 218° Southwest 190 219 8,000  Level Cincinnati TRACON
02:59AM 38.8472 -84.8361 229° Southwest 190 219 8,000  Level Indianapolis Center
03:00AM 38.8103 -84.8867 227° Southwest 192 221 8,000  Level Indianapolis Center
03:01AM 38.7806 -84.9278 227° Southwest 189 217 8,000  Level Indianapolis Center
03:02AM 38.7442 -84.9775 227° Southwest 189 217 8,000  Level Indianapolis Center
03:03AM 38.7069 -85.0267 226° Southwest 190 219 8,000  Level Indianapolis Center
03:04AM 38.6714 -85.0769 228° Southwest 190 219 8,000 -50 Level Indianapolis Center
03:05AM 38.6336 -85.1267 226° Southwest 192 221 7,900 -248 Descending Indianapolis Center
03:06AM 38.5958 -85.1764 226° Southwest 197 227 7,500 -347 Descending Indianapolis Center
03:07AM 38.5517 -85.2350 226° Southwest 202 232 7,200 -300 Descending Indianapolis Center
03:08AM 38.5144 -85.2861 227° Southwest 198 228 6,900 -400 Descending Indianapolis Center
03:09AM 38.4772 -85.3344 225° Southwest 192 221 6,400 -450 Descending Indianapolis Center
03:10AM 38.4419 -85.3831 227° Southwest 187 215 6,000 -400 Descending Indianapolis Center
03:11AM 38.4056 -85.4317 226° Southwest 189 217 5,600 -450 Descending Indianapolis Center
03:12AM 38.3711 -85.4781 227° Southwest 181 208 5,100 -446 Descending Indianapolis Center
03:13AM 38.3428 -85.5144 225° Southwest 180 207 4,700 -496 Descending Indianapolis Center
03:14AM 38.3131 -85.5642 233° Southwest 177 204 4,100 -600 Descending Indianapolis Center
03:15AM 38.2869 -85.6208 240° Southwest 181 208 3,500 -600 Descending Indianapolis Center
03:16AM 38.2642 -85.6794 244° Southwest 183 211 2,900 -500 Descending Indianapolis Center
03:17AM 38.2447 -85.7317 245° Southwest 176 203 2,500 -750 Descending Indianapolis Center
03:18AM 38.2100 -85.7397 190° South 158 182 1,400 -1,100 Descending Indianapolis Center
03:20AM 38.1741 -85.7365 230° Southwest  Level Estimated

Login

Don't have an account? Register now (free) for customized features, flight alerts, and more!